Flag for Canada Weather past 2 weeks in Saint John, New Brunswick, Canada

Now
28 °F

Passing clouds.


Feels Like: 28 °F
Forecast: 29 / 49 °F
Wind: 2 mph from Northeast

Location: Saint John

Current Time: Apr 25, 2015 at 11:23:54 PM

Latest Report: Apr 25, 2015 at 11:00 PM


Visibility: 15 mi

Pressure: 29.65 "Hg

Humidity: 100%

Dew point: 28 °F

Location of Saint JohnLocation

Historic Weather in Saint John — Graph

°F

Saint John temperature yesterday

Maximum temperature yesterday: 41 °F (at 2:00 PM)
Minimum temperature yesterday: 34 °F (at 3:00 AM)
Average temperature yesterday: 37 °F

Past Weeks' High & Low Weather Summary

 TemperatureHumidityPressure
High59 °F (Apr 22, 3:00 PM)100% (Apr 10, 10:00 PM)30.42 "Hg (Apr 10, 10:00 PM)
Low23 °F (Apr 20, 4:00 AM)23% (Apr 16, 3:00 PM)29.51 "Hg (Apr 11, 1:00 PM)
Average39 °F75%29.93 "Hg
* Reported Apr 10 10:00 PM — Apr 25 10:00 PM, Saint John, Weather by CustomWeather, © 2015

Note: Actual official high and low records may vary slightly from our data, if they occured in-between our weather recording intervals... More about our weather records

Advertising

Saint John weather history for previous 24 hours

 ConditionsComfort  
Time TempWeatherWind HumidityBarometerVisibility
10:00 PM
Sat, Apr 25
36 °FPassing clouds.3 mph87%29.66 "Hg15 mi
9:00 PM36 °FBroken clouds.3 mph93%29.65 "Hg15 mi
8:00 PM39 °FBroken clouds.3 mph81%29.64 "Hg15 mi
7:00 PM41 °FBroken clouds.6 mph76%29.63 "Hg15 mi
6:00 PM43 °FPartly sunny.7 mph71%29.62 "Hg15 mi
5:00 PM43 °FPartly sunny.10 mph71%29.62 "Hg15 mi
4:00 PM41 °FBroken clouds.9 mph76%29.63 "Hg15 mi
3:00 PM39 °FSprinkles. More clouds than sun.6 mph87%29.64 "Hg10 mi
2:00 PM41 °FSprinkles. Cloudy.12 mph76%29.64 "Hg8 mi
1:00 PM41 °FMostly cloudy.7 mph81%29.63 "Hg8 mi
12:00 PM39 °FMore clouds than sun.9 mph81%29.62 "Hg7 mi
11:00 AM39 °FOvercast.5 mph70%29.62 "Hg10 mi
10:00 AM37 °FOvercast.6 mph75%29.62 "Hg10 mi
9:00 AM36 °FFog.3 mph87%29.62 "Hg6 mi
8:00 AM34 °FFog.5 mph100%29.62 "Hg3 mi
7:00 AM32 °FLight snow. Overcast.2 mph100%29.61 "Hg1 mi
6:00 AM34 °FFog.2 mph93%29.60 "Hg5 mi
5:00 AM34 °FFog.3 mph93%29.59 "Hg5 mi
4:00 AM34 °FOvercast.5 mph93%29.59 "Hg8 mi
3:00 AM36 °FOvercast.No wind87%29.59 "Hg12 mi
2:00 AM36 °FOvercast.6 mph93%29.59 "Hg15 mi
1:00 AM36 °FOvercast.8 mph93%29.58 "Hg15 mi
12:00 AM37 °FMostly cloudy.7 mph87%29.58 "Hg15 mi
11:00 PM
Fri, Apr 24
36 °FMostly cloudy.6 mph93%29.58 "Hg15 mi
Weather by CustomWeather, © 2015

See weather overviewHow to use our weather pages